TimeEDT,TemperatureF,Dew PointF,Humidity,Sea Level PressureIn,VisibilityMPH,Wind Direction,Wind SpeedMPH,Gust SpeedMPH,PrecipitationIn,Events,Conditions,WindDirDegrees,DateUTC
12:53 AM,37.9,35.1,89,29.82,10.0,North,8.1,-,0.01,,Overcast,360,2013-05-26 04:53:00
1:20 AM,37.4,35.6,93,29.80,10.0,NNW,6.9,-,0.01,Rain,Light Rain,340,2013-05-26 05:20:00
1:53 AM,37.9,36.0,93,29.80,10.0,North,6.9,-,0.02,,Overcast,360,2013-05-26 05:53:00
2:29 AM,39.2,35.6,87,29.78,10.0,North,5.8,-,0.00,,Overcast,360,2013-05-26 06:29:00
2:53 AM,39.0,36.0,89,29.79,10.0,North,8.1,-,0.00,,Overcast,10,2013-05-26 06:53:00
3:53 AM,39.9,36.0,86,29.78,10.0,Variable,5.8,-,0.00,,Overcast,0,2013-05-26 07:53:00
4:05 AM,39.2,35.6,87,29.77,10.0,North,5.8,-,N/A,,Overcast,360,2013-05-26 08:05:00
4:18 AM,39.2,37.4,93,29.78,10.0,NNE,4.6,-,N/A,,Overcast,20,2013-05-26 08:18:00
4:53 AM,41.0,37.0,86,29.80,10.0,North,4.6,-,N/A,,Overcast,360,2013-05-26 08:53:00
5:00 AM,41.0,37.4,87,29.79,10.0,NNW,9.2,-,N/A,,Overcast,340,2013-05-26 09:00:00
5:53 AM,41.0,37.0,86,29.81,10.0,NNW,6.9,-,N/A,,Overcast,340,2013-05-26 09:53:00
6:39 AM,42.8,37.4,81,29.81,10.0,NNW,5.8,-,N/A,,Overcast,330,2013-05-26 10:39:00
6:53 AM,42.1,37.9,85,29.83,10.0,NW,5.8,-,N/A,,Overcast,310,2013-05-26 10:53:00
7:53 AM,44.1,39.0,82,29.84,10.0,NNW,8.1,-,N/A,,Overcast,340,2013-05-26 11:53:00
8:53 AM,46.0,37.0,71,29.85,10.0,NNW,13.8,21.9,N/A,,Overcast,330,2013-05-26 12:53:00
9:00 AM,46.4,37.4,71,29.84,10.0,North,10.4,21.9,N/A,,Overcast,360,2013-05-26 13:00:00
9:53 AM,48.9,37.9,66,29.86,10.0,NW,17.3,21.9,N/A,,Overcast,320,2013-05-26 13:53:00
10:53 AM,48.9,37.9,66,29.87,10.0,NW,13.8,24.2,0.00,Rain,Light Rain,320,2013-05-26 14:53:00
11:53 AM,50.0,37.0,61,29.88,10.0,NW,13.8,23.0,0.00,,Overcast,320,2013-05-26 15:53:00
12:53 PM,50.0,37.0,61,29.90,10.0,NW,13.8,23.0,N/A,,Overcast,310,2013-05-26 16:53:00
1:53 PM,51.1,37.0,59,29.92,10.0,North,11.5,20.7,N/A,,Overcast,360,2013-05-26 17:53:00
2:53 PM,52.0,37.0,57,29.93,10.0,NW,17.3,25.3,N/A,,Overcast,320,2013-05-26 18:53:00
3:53 PM,53.1,37.0,55,29.95,10.0,NNW,16.1,29.9,N/A,,Overcast,330,2013-05-26 19:53:00
4:53 PM,52.0,37.9,59,29.98,10.0,North,10.4,20.7,N/A,,Overcast,350,2013-05-26 20:53:00
5:53 PM,51.1,37.9,61,30.01,10.0,North,13.8,21.9,N/A,,Overcast,350,2013-05-26 21:53:00
6:53 PM,50.0,39.0,66,30.04,10.0,North,11.5,19.6,N/A,,Overcast,350,2013-05-26 22:53:00
7:53 PM,50.0,37.9,63,30.05,10.0,NNW,5.8,-,N/A,,Overcast,340,2013-05-26 23:53:00
8:53 PM,48.0,37.9,68,30.06,10.0,NNW,4.6,-,N/A,,Overcast,330,2013-05-27 00:53:00
9:53 PM,42.1,37.9,85,30.08,10.0,Calm,Calm,-,N/A,,Clear,0,2013-05-27 01:53:00
10:53 PM,39.0,37.0,93,30.08,10.0,Calm,Calm,-,N/A,,Clear,0,2013-05-27 02:53:00
11:53 PM,37.9,37.0,97,30.09,10.0,Calm,Calm,-,N/A,,Clear,0,2013-05-27 03:53:00